星链-11099 [DTC] (STARLINK-11099 [DTC] )

导读

STARLINK-11099是美国太空探索技术公司(SpaceX)星链(Starlink)星座中的一颗卫星,于2024年5月10日发射升空。星链项目旨在搭建全球卫星互联网,该卫星入轨后将和其他星链卫星协同,为全球范围内用户提供低延迟、广覆盖的宽带网络服务,进一步推进星链星座的组网部署进程。

基本信息
目录编号:
59716
目录名称:
STARLINK-11099
国际标识:
2024-088J
轨道中心:
EARTH
卫星名称:
星链-11099 [DTC]
卫星全名:
星链-11099 [DTC] (STARLINK-11099 [DTC] )
卫星状态:
在轨 (已飞行854 天)
发射日期:
2024-05-10 UTC
国别 :
美国 (US)
星等 :
--
轨道信息
数据来源 国际轨道数据 AOE轨道数据
星历时间 2026-09-10T17:36:42+0800
20小时前
查看轨道信息
2026-09-10T23:00:00+0800
14小时前
查看轨道信息
半长轴 6737.868km 6737.833km
偏心率 0.0001053 0.0000913
轨道倾角 53.158° 53.156°
近地点辐角 88.108° 53.559°
升交点赤经 135.677° 134.574°
平近点角 272.005° 136.013°
近地点 359.021km 359.08km
远地点 360.441km 360.312km
周期 91.737分钟 91.736分钟
每日圈数 15.697087 15.697209
详细信息
固有亮度:
5
最大亮度:
0.6
卫星平台:
Starlink v2.0 mini
覆盖范围:
全球
运营商:
太空探索技术公司
运营商所在国:
美国
制造商(研发单位):
太空探索技术公司
制造商所在国:
美国
使用方式:
暂无
卫星简介
星链(Starlink)计划是由太空探索技术公司(SpaceX)提出的一个巨型低轨卫星互联网星座项目,计划在2019年至2024年间在太空搭建由约1.2万颗卫星组成的“星链”网络,其中1584颗将部署在地球上空550千米处的近地轨道,并从2020年开始工作。该卫星仍在工作。
2D轨道图
3D轨道图
轨道高度分析图
轨道倾角分析图
轨道综合分析图
查看轨道综合分析图
与全量物体交会距离演化趋势
与全量物体交会风险概率演化趋势